sat.trackr.live / text

‹ back to catalog

STARLINK-32854

NORAD 62816 · 2025-018L

PAYLOAD ACTIVE UNKNOWN

§ Identity

Operator
Country
US
Launch date
2025-01-24
Launch site
AFWTR
Launch vehicle
Mass (kg)
RCS (m²)

Purposes: comms

External: N2YO · Heavens-Above · Gunter

§ Orbital elements

Epoch: 2026-05-24T21:12:38.155680Z

Period
94.11 min
Inclination
53.1604°
Eccentricity
0.0001125
Mean motion
15.30193908 rev/d
Perigee alt
474.5 km
Apogee alt
476.0 km
Semi-major
6,853.4 km
B*
2.0196e-4
RAAN
315.7135°
Arg perigee
87.4056°
Mean anomaly
272.7073°
Rev number
7,482

§ Raw data

STARLINK-328541 62816U 25018L   26144.88377495  .00005626  00000+0  20196-3 0  99962 62816  53.1604 315.7135 0001125  87.4056 272.7073 15.30193908 74826

JSON: /api/v1/satellites/62816 · /tle

For live sub-satellite position, see the globe view (requires WebGL).

§ Visibility from observer

Set your observer location to see the next 7 days of passes ≥ 10°. The values pass through the URL so the page stays shareable.

No JS? Fill the form by hand. The geolocation button needs JavaScript.